Regional Weather Roundup
Issued by NWS Upton, NY

Current Version | Previous Version | Graphics & Text | Print | Product List | Glossary Off
Versions: 1 2 3 4 5 6 7 8 9 10 11 12 13 14 15 16 17 18 19 20 21 22 23 24 25 26 27 28 29 30 31 32 33 34 35 36 37 38 39 40 41 42 43 44 45 46 47 48 49 50

000
ASUS41 KOKX 080508
RWROKX

REGIONAL WEATHER ROUNDUP
NATIONAL WEATHER SERVICE NEW YORK NY
1200 AM EST THU DEC 08 2016

NOTE: "FAIR" INDICATES FEW OR NO CLOUDS BELOW 12,000 FEET WITH NO
SIGNIFICANT WEATHER AND/OR OBSTRUCTIONS TO VISIBILITY.

NYZ071-072-176-178-NJZ106-104-080600-
NEW YORK CITY METRO AREA

CITY           SKY/WX    TMP DP  RH WIND       PRES   REMARKS
Central Park   NOT AVBL
Wall St Helipt PTCLDY    43  36  76 W6        30.03F
Bronx Bot Gard NOT AVBL
LaGuardia APRT CLOUDY    45  35  68 SW5       30.01F
Kennedy INTL   MOCLDY    42  35  76 SW7       30.02F
Breezy Point     N/A     43 N/A N/A W6          N/A
Newark/Liberty MOCLDY    38  33  82 SW6       30.02F WCI  33
Teterboro      CLOUDY    39  33  79 CALM      30.01F
$$

NYZ177-179-078>081-080600-
LONG ISLAND NEW YORK

CITY           SKY/WX    TMP DP  RH WIND       PRES   REMARKS
Jones Beach      N/A     45 N/A N/A W2          N/A
Matinecock PT  NOT AVBL
Farmingdale    CLEAR     37  34  89 CALM      30.01F
MacArthur/ISP  MOCLDY    36  34  92 CALM      30.01F
Shirley        PTCLDY    34  34 100 CALM      30.02F FOG
Westhampton    PTCLDY    33  31  92 CALM      30.03F FOG
Southampton    NOT AVBL
Bridgehampton  NOT AVBL
East Hampton   CLOUDY    37  37  97 CALM      30.01S
Montauk          N/A     43  38  82 W3        30.01S
$$

NYZ052-065-067-080600-
HUDSON VALLEY

CITY           SKY/WX    TMP DP  RH WIND       PRES   REMARKS
White Plains   PTCLDY    38  34  85 CALM      29.99F
Newburgh       MOCLDY    34  34 100 W6        30.00F WCI  29
Montgomery     CLOUDY    31  30  96 S3        29.98F FOG
Poughkeepsie   CLOUDY    30  29  96 CALM      29.99F FOG
Albany         FOG       35  34  96 S3        29.99F VSB 1/2
$$

NJZ001-105-106-008-010-013-015-019>022-104-080600-
NEW JERSEY

CITY           SKY/WX    TMP DP  RH WIND       PRES   REMARKS
Newark/Liberty MOCLDY    38  33  82 SW6       30.02F WCI  33
Teterboro      CLOUDY    39  33  79 CALM      30.01F
Caldwell       CLOUDY    35  34  96 CALM      30.02F
Somerville     PTCLDY    30  27  88 CALM      30.01F FOG
Linden           N/A     39  33  78 W3        30.03F
Sussex         CLOUDY    31  31 100 CALM      29.99F FOG
Andover          N/A     32  31  96 CALM      30.00F
Trenton        CLOUDY    34  31  88 CALM      30.03F
Millville      PTCLDY    29  29 100 CALM      30.05F
Atlantic City  PTCLDY    33  30  88 W3        30.04F
Wrightstown    CLEAR     31  30  96 CALM      30.01F
Toms River     CLOUDY    30  29  96 W3        30.04F
Belmar         PTCLDY    35  33  92 SW6       30.04F WCI  30
$$

PAZ047>061-062-071-080600-
EASTERN PENNSYLVANIA

CITY           SKY/WX    TMP DP  RH WIND       PRES   REMARKS
Philadelphia   CLOUDY    39  33  79 SW6       30.05F WCI  35
Allentown      PTCLDY    35  29  78 W3        30.02F
Scranton       CLOUDY    39  26  59 SW7       29.98S WCI  34
$$

CTZ002-004>006-009-010-012-RIZ004-006-007-MAZ004-011-015-080600-
SOUTHERN NEW ENGLAND
 IN CT

CITY           SKY/WX    TMP DP  RH WIND       PRES   REMARKS
Bradley INTL   CLOUDY    35  32  88 W3        30.00S
Hartford       CLOUDY    36  35  96 CALM      30.01S FOG
Danbury        CLOUDY    32  31  96 CALM      30.00F
Wtrbury/Oxford CLOUDY    36  30  80 CALM      30.00F
Bridgeport     NOT AVBL
Meriden        CLOUDY    36  33  89 CALM      30.00F FOG
New Haven      CLOUDY    37  35  92 CALM      30.00F
Chester          N/A     37  36  93 CALM      29.99F
Groton         CLOUDY    41  38  89 NW3       30.00S
Wilimantic     FOG       35  34  96 CALM      30.00F VSB 1/2

 IN RI

CITY           SKY/WX    TMP DP  RH WIND       PRES   REMARKS
Providence     MOCLDY    38  34  85 W5        29.98F WCI  34
Block Island   CLOUDY    42  37  82 CALM      29.99F
Westerly       CLOUDY    37  32  82 CALM      30.00S
 IN MA

CITY           SKY/WX    TMP DP  RH WIND       PRES   REMARKS
Boston         MOCLDY    37  34  89 SW8       29.97F WCI  31
Worcester      CLOUDY    33  31  92 W8        29.94F WCI  26
Westfield      PTCLDY    30  30 100 CALM      29.99F FOG
Provincetown   PTCLDY    41  35  79 W6        29.97F
Nantucket      CLOUDY    42  39  89 N3        29.98F
$$

ANZ330-335-338-340-345-350-353-355-080600-
COASTAL MARINE OBSERVATIONS


STATION/POSITION TIME  SKY/WX   TEMP    WIND        PRES    VSBY  WAVE
                                AIR SEA DIR/SP/G                  HT/PER
                 (UTC)          (F)     (DEG/KT/KT) (MB)    (MI)  (FT/S)
NY HARB ENTRANCE 0350            46 52  270/ 12/ 14 1017.0          4/ 8
20 S FIRE ISLAND 0350            47 53  330/  8/ 10 1016.8          5/ 8
GREAT SOUTH BAY  0430            41 43                N/A
23 SSW MONTAUK P 0350            46 54  320/  6/  8 1016.5          5/ 8
15 E BARNEGAT LI 0430               53                N/A           5/ 8
HUDSON CANYON    0350            50 56              1016.5          6/ 8
KINGS POINT      0430            43 48              1016.3
EXECUTION ROCKS  0445            45     220/  6/  6   N/A
CENTRAL LI SOUND 0430            45 50  260/  6/  6   N/A           1
EASTERN LI SOUND NOT AVBL
ROBBINS REEF     0430            43     250/  9/ 11 1016.8
$$


>>>>>>>>>>>>>>>>>>>>>>>>>>>> KEY <<<<<<<<<<<<<<<<<<<<<<<<<<<
>                                                          <
>     SKY/WX - Sky Condition/Present Weather               <
>     TMP    - Temperature in Fahrenheit                   <
>     DP     - Dew Point in Fahrenheit                     <
>     RH     - Relative Humidity in Percent                <
>     WIND   - Direction (from) and Speed in MPH           <
>     PRES   - Mean Sea Level Pressure (inches of Hg)      <
>     WCI    - Wind Chill Index                            <
>     VSB    - VISIBILITY IN MILES                         <
>     HX     - HEAT INDEX                                  <
>     TC     - TEMPERATURE IN CELSIUS                      <
>     VRB    - VARIABLE WIND DIRECTION                     <
>                                                          <
>>>>>>>>>>>>>>>>>>>>>>>>>>>> KEY <<<<<<<<<<<<<<<<<<<<<<<<<<<



USA.gov is the U.S. government's official web portal to all federal, state and local government web resources and services.